[[{"header":{"parameterUnit":"m.s-1","parameterCategory":2,"la1":30.2992,"la2":30.254,"lo1":-89.0895,"lo2":-89.0443,"dy":0.0025,"dx":0.0025,"nx":19,"ny":19,"refTime":"2026-03-12T03:00:00:Z","depth":"0","parameterNumber":2,"parameterNumberName":"U-component_of_CURRENTS"},"data":[0,0,0,0.1391,0.1392,0.1424,0.1424,0.1452,0.1452,0,0,0,0,0,0,0,0,0,0,0,0.1376,0.1377,0.1391,0.1392,0.1424,0.1424,0.1452,0.1452,0,0,0,0,0,0,0,0,0,0,0,0.1376,0.1377,0.1377,0.1392,0.1424,0.1424,0.1452,0.143,0,0,0,0,0,0,0,0,0,0,0.14,0.1387,0.1377,0.1377,0.1392,0.1424,0.1424,0.1429,0.1431,0.1435,0,0.1442,0,0.1451,0.1454,0.1454,0,0,0,0.1387,0.1385,0.1398,0.1377,0.1393,0.1424,0.1408,0.143,0.1433,0.1438,0.1442,0.1444,0.1452,0.1454,0.1454,0.15,0.15,0,0,0.1386,0.1378,0.1397,0.14,0.1404,0.1407,0.1409,0.1432,0.1433,0.1443,0.1445,0.1452,0.1455,0.1455,0.1499,0.15,0,0,0,0.1384,0.1377,0.1389,0.1399,0.1408,0.1408,0.1411,0.1432,0.1437,0.1445,0.1453,0.1455,0.1455,0.1499,0.15,0.1525,0,0,0,0.1382,0.1376,0.1388,0.1383,0.1407,0.1422,0.141,0.1435,0.1439,0.1452,0.1455,0.1455,0.1499,0.1499,0.1524,0.1524,0,0,0,0.1375,0.1375,0.1381,0.1383,0.14,0.1422,0.1428,0.1436,0.1443,0.1454,0.1455,0.1499,0.1499,0.1522,0.1522,0.1596,0,0,0,0.1363,0.137,0.138,0.1393,0.14,0.1429,0.1428,0.1447,0.1457,0.1455,0.1499,0.15,0.1522,0.1521,0.1593,0.1617,0.1629,0,0,0.1365,0.137,0.1379,0.1389,0.1414,0.1424,0.1455,0.1466,0.1468,0.1489,0.149,0.1524,0.1522,0.1595,0.1655,0.1665,0,0,0,0.1375,0.1378,0.1389,0.1406,0.1431,0.1457,0.1473,0.1487,0.1511,0.1479,0.153,0.1528,0.1574,0.1584,0.1592,0.1671,0.1503,0.1502,0.1502,0.1355,0.1375,0.1389,0.1417,0.1439,0.1481,0.1508,0.153,0.153,0.1548,0.1554,0.163,0.164,0.1646,0.1728,0.1565,0.1566,0.1566,0.1566,0.1348,0.1351,0.1384,0.1401,0.144,0.1468,0.1532,0.1551,0.1617,0.1586,0.1631,0.1615,0.1657,0.174,0.1567,0.1567,0.1567,0.1567,0.1567,0.1321,0.1326,0.1341,0.1368,0.1405,0.1456,0.1526,0.1583,0.1631,0.1671,0.1722,0.1722,0.1794,0.1714,0.1715,0.1715,0.1715,0.1715,0.1716,0.128,0.1299,0.13,0.1335,0.1351,0.141,0.153,0.1601,0.1715,0.1751,0.1752,0.1832,0.1676,0.1669,0.1721,0.172,0.1719,0.1719,0.1718,0.1238,0.1246,0.1248,0.1258,0.1306,0.1351,0.1488,0.1662,0.1766,0.1822,0.1952,0.1812,0.1814,0.1807,0.1803,0.1887,0.1887,0.1887,0.1887,0.1201,0.1209,0.12,0.1207,0.1244,0.132,0.1436,0.162,0.1881,0.2016,0.2067,0.2039,0.2028,0.2041,0.2029,0.2029,0.2169,0.2169,0.217,0.1169,0.1177,0.1155,0.1171,0.1203,0.1281,0.1371,0.1561,0.1973,0.2189,0.2179,0.2167,0.213,0.2107,0.2124,0.2101,0.2098,0,0]},{"header":{"parameterUnit":"m.s-1","parameterCategory":2,"la1":30.2992,"la2":30.254,"lo1":-89.0895,"lo2":-89.0443,"dy":0.0025,"dx":0.0025,"nx":19,"ny":19,"refTime":"2026-03-12T03:00:00:Z","depth":"0","parameterNumber":3,"parameterNumberName":"V-component_of_CURRENTS"},"data":[0,0,0,0.0215,0.0214,0.0171,0.017,0.0091,0.009,0,0,0,0,0,0,0,0,0,0,0,0.0231,0.0231,0.0215,0.0214,0.0171,0.017,0.0091,0.009,0,0,0,0,0,0,0,0,0,0,0,0.0231,0.0231,0.0231,0.0214,0.0171,0.017,0.0091,0.0128,0,0,0,0,0,0,0,0,0,0,0.0173,0.0197,0.0231,0.0231,0.0214,0.0171,0.017,0.013,0.0126,0.0107,0,0.0106,0,0.0099,0.0085,0.0085,0,0,0,0.0206,0.0201,0.0187,0.0231,0.0214,0.0171,0.0188,0.0128,0.0123,0.0101,0.0105,0.0102,0.0098,0.0085,0.0084,0.0055,0.0056,0,0,0.0209,0.0222,0.019,0.0184,0.0209,0.019,0.0187,0.0125,0.0124,0.0105,0.01,0.0096,0.0084,0.0084,0.0055,0.0055,0,0,0,0.0221,0.0224,0.0211,0.0187,0.0182,0.0188,0.0185,0.0127,0.0122,0.0099,0.0095,0.0084,0.0083,0.0055,0.0055,0.0119,0,0,0,0.0222,0.0232,0.0213,0.022,0.0184,0.0158,0.0188,0.0126,0.0119,0.0096,0.0084,0.0082,0.0054,0.0055,0.0116,0.0158,0,0,0,0.0232,0.0232,0.0229,0.0221,0.0205,0.0159,0.0151,0.0125,0.0117,0.0085,0.0082,0.0054,0.0055,0.0114,0.0154,0.02,0,0,0,0.0244,0.0253,0.023,0.024,0.0206,0.0196,0.0151,0.0136,0.0114,0.0083,0.0055,0.0055,0.0114,0.0151,0.0198,0.0273,0.0292,0,0,0.0265,0.0256,0.0263,0.0241,0.025,0.0201,0.0206,0.0156,0.0115,0.0071,0.007,0.0117,0.0154,0.02,0.0307,0.0325,0,0,0,0.0276,0.0283,0.0281,0.0279,0.026,0.025,0.0199,0.0176,0.0141,0.0105,0.0111,0.0133,0.016,0.0198,0.0213,0.0206,0.0058,0.0058,0.0058,0.0321,0.0313,0.0332,0.0321,0.0314,0.028,0.0271,0.0229,0.0176,0.0173,0.018,0.0253,0.0294,0.0306,0.0297,0.0166,0.0166,0.0166,0.0166,0.0367,0.038,0.0375,0.0388,0.0373,0.0367,0.0332,0.0301,0.029,0.0232,0.0255,0.0257,0.0326,0.0311,0.017,0.017,0.0169,0.0169,0.0169,0.0397,0.0404,0.0411,0.0436,0.0451,0.0426,0.0469,0.042,0.0361,0.038,0.0412,0.0412,0.0403,0.0387,0.0387,0.0388,0.0388,0.0388,0.0388,0.0424,0.0434,0.0464,0.0488,0.0511,0.0545,0.0552,0.0563,0.0546,0.0501,0.0501,0.0436,0.032,0.0318,0.0395,0.0393,0.0393,0.0392,0.0392,0.0461,0.0463,0.0515,0.0546,0.0619,0.0721,0.0721,0.0774,0.0756,0.076,0.0634,0.0563,0.0553,0.0541,0.0544,0.0675,0.0675,0.0675,0.0675,0.0485,0.049,0.0567,0.0634,0.0725,0.0804,0.0977,0.1011,0.09,0.0838,0.0744,0.0704,0.0692,0.0687,0.0672,0.0674,0.0835,0.0835,0.0835,0.0516,0.0536,0.0599,0.0664,0.0772,0.0919,0.1118,0.1272,0.1073,0.0836,0.0723,0.0716,0.0644,0.0627,0.0603,0.0582,0.058,0,0]}],[{"header":{"parameterUnit":"m.s-1","parameterCategory":2,"la1":30.2992,"la2":30.254,"lo1":-89.0895,"lo2":-89.0443,"dy":0.0025,"dx":0.0025,"nx":19,"ny":19,"refTime":"2026-03-12T03:00:00:Z","depth":"2","parameterNumber":2,"parameterNumberName":"U-component_of_CURRENTS"},"data":[0,0,0,0.1364,0.1365,0.1399,0.1399,0.1428,0.1428,0,0,0,0,0,0,0,0,0,0,0,0.1349,0.135,0.1364,0.1365,0.1399,0.1399,0.1428,0.1428,0,0,0,0,0,0,0,0,0,0,0,0.1349,0.135,0.135,0.1366,0.1399,0.1399,0.1428,0.1405,0,0,0,0,0,0,0,0,0,0,0.1373,0.1361,0.135,0.135,0.1366,0.1399,0.14,0.1404,0.1406,0.141,0,0.1417,0,0.1427,0.143,0.143,0,0,0,0.1361,0.1359,0.1372,0.135,0.1366,0.1399,0.1383,0.1405,0.1408,0.1413,0.1418,0.1419,0.1427,0.143,0.143,0.1475,0.1475,0,0,0.1359,0.1352,0.137,0.1374,0.1378,0.1382,0.1384,0.1407,0.1408,0.1418,0.142,0.1428,0.1431,0.1431,0.1475,0.1475,0,0,0,0.1357,0.135,0.1363,0.1372,0.1382,0.1383,0.1385,0.1407,0.1413,0.142,0.1428,0.1431,0.1431,0.1475,0.1475,0.15,0,0,0,0.1355,0.1349,0.1362,0.1357,0.1381,0.1397,0.1385,0.1411,0.1414,0.1428,0.1431,0.1431,0.1474,0.1475,0.1499,0.1499,0,0,0,0.1347,0.1348,0.1354,0.1357,0.1374,0.1397,0.1403,0.1412,0.1419,0.143,0.1431,0.1474,0.1475,0.1497,0.1497,0.1569,0,0,0,0.1336,0.1343,0.1354,0.1367,0.1374,0.1403,0.1403,0.1422,0.1433,0.1431,0.1474,0.1475,0.1497,0.1496,0.1567,0.158,0.1591,0,0,0.1338,0.1343,0.1351,0.1362,0.1387,0.1398,0.1429,0.1441,0.1444,0.1464,0.1465,0.1499,0.1497,0.1568,0.1617,0.1627,0,0,0,0.1347,0.1351,0.1362,0.1379,0.1403,0.143,0.1447,0.1461,0.1486,0.1455,0.1505,0.1503,0.1548,0.1552,0.1559,0.1478,0.1478,0.1478,0.1478,0.1328,0.1347,0.1361,0.1389,0.1411,0.1453,0.148,0.1503,0.1504,0.1522,0.1529,0.1602,0.1606,0.1612,0.154,0.154,0.154,0.154,0.154,0.1321,0.1324,0.1356,0.1373,0.1413,0.1441,0.1504,0.1523,0.1589,0.1559,0.1603,0.1582,0.1622,0.1542,0.1542,0.1541,0.1541,0.1541,0.1541,0.1295,0.1299,0.1315,0.1342,0.1379,0.143,0.1499,0.1556,0.1603,0.1643,0.1687,0.1686,0.1631,0.1685,0.1685,0.1686,0.1686,0.1686,0.1686,0.1255,0.1274,0.1275,0.131,0.1327,0.1386,0.1504,0.1574,0.1681,0.1714,0.1715,0.1652,0.1647,0.164,0.1691,0.169,0.169,0.1689,0.1689,0.1214,0.1222,0.1225,0.1235,0.1284,0.1324,0.146,0.1626,0.1728,0.1779,0.1772,0.1769,0.177,0.1763,0.1759,0.1839,0.1839,0.1839,0.1839,0.1177,0.1186,0.1178,0.1186,0.1222,0.1293,0.1388,0.1525,0.1688,0.1751,0.1754,0.17,0.1698,0.1691,0.1685,0.1678,0.1736,0.1736,0.1735,0.1146,0.1155,0.1134,0.115,0.1182,0.1252,0.1303,0.137,0.1561,0.1725,0.1671,0.1844,0.1772,0.1765,0.1757,0.1748,0.1737,0,0]},{"header":{"parameterUnit":"m.s-1","parameterCategory":2,"la1":30.2992,"la2":30.254,"lo1":-89.0895,"lo2":-89.0443,"dy":0.0025,"dx":0.0025,"nx":19,"ny":19,"refTime":"2026-03-12T03:00:00:Z","depth":"2","parameterNumber":3,"parameterNumberName":"V-component_of_CURRENTS"},"data":[0,0,0,0.0121,0.0121,0.0081,0.008,0.0002,0.0001,0,0,0,0,0,0,0,0,0,0,0,0.0136,0.0135,0.0121,0.0121,0.0081,0.008,0.0002,0.0001,0,0,0,0,0,0,0,0,0,0,0,0.0136,0.0136,0.0135,0.012,0.0081,0.008,0.0002,0.0037,0,0,0,0,0,0,0,0,0,0,0.0079,0.0103,0.0136,0.0135,0.012,0.0081,0.008,0.0039,0.0035,0.0015,0,0.0015,0,0.0009,-0.0004,-0.0004,0,0,0,0.0112,0.0106,0.0093,0.0135,0.012,0.0081,0.0096,0.0037,0.0032,0.001,0.0014,0.0011,0.0008,-0.0004,-0.0005,-0.0035,-0.0035,0,0,0.0115,0.0128,0.0096,0.009,0.0117,0.0098,0.0095,0.0034,0.0034,0.0014,0.0009,0.0006,-0.0005,-0.0005,-0.0035,-0.0035,0,0,0,0.0126,0.0129,0.0118,0.0093,0.009,0.0097,0.0094,0.0036,0.0032,0.0008,0.0005,-0.0005,-0.0006,-0.0035,-0.0035,0.0028,0,0,0,0.0127,0.0137,0.0119,0.0126,0.0091,0.0067,0.0097,0.0036,0.0029,0.0006,-0.0005,-0.0007,-0.0036,-0.0035,0.0025,0.0066,0,0,0,0.0136,0.0137,0.0135,0.0127,0.0113,0.0068,0.006,0.0035,0.0027,-0.0004,-0.0007,-0.0036,-0.0035,0.0023,0.0062,0.0104,0,0,0,0.0147,0.0158,0.0135,0.0146,0.0113,0.0104,0.0061,0.0046,0.0025,-0.0006,-0.0036,-0.0035,0.0023,0.006,0.0101,0.0162,0.018,0,0,0.0169,0.0161,0.0167,0.0146,0.0155,0.0109,0.0113,0.0065,0.0025,-0.002,-0.0021,0.0026,0.0062,0.0104,0.0195,0.0212,0,0,0,0.018,0.0187,0.0184,0.0184,0.0164,0.0155,0.0106,0.0084,0.005,0.0016,0.002,0.0041,0.0065,0.0096,0.0109,-0.0032,-0.0032,-0.0032,-0.0032,0.0225,0.0217,0.0234,0.0223,0.0217,0.0184,0.0174,0.0133,0.0082,0.0081,0.0087,0.0156,0.0189,0.02,0.0073,0.0074,0.0074,0.0074,0.0074,0.0269,0.0282,0.0277,0.029,0.0275,0.027,0.0232,0.0203,0.0192,0.0138,0.0158,0.0154,0.0218,0.0079,0.0078,0.0077,0.0077,0.0076,0.0076,0.03,0.0307,0.0314,0.0338,0.0353,0.0328,0.0367,0.0319,0.0261,0.0278,0.0301,0.0301,0.0206,0.0285,0.0286,0.0286,0.0286,0.0287,0.0287,0.0328,0.0337,0.0368,0.0391,0.0413,0.0446,0.0449,0.0456,0.0434,0.0387,0.0387,0.0228,0.0221,0.0218,0.0293,0.0291,0.0291,0.029,0.029,0.0364,0.0367,0.0419,0.0449,0.0519,0.0606,0.0609,0.065,0.0631,0.0629,0.0445,0.0439,0.0428,0.0417,0.0419,0.0541,0.0541,0.0541,0.0541,0.0389,0.0394,0.047,0.0534,0.0619,0.0682,0.0814,0.0789,0.0689,0.0594,0.0592,0.0549,0.0539,0.0529,0.0515,0.0517,0.0665,0.0665,0.0665,0.0418,0.0439,0.0501,0.0563,0.0665,0.0784,0.0907,0.0888,0.0721,0.0665,0.0563,0.0559,0.0487,0.0474,0.0447,0.043,0.0427,0,0]}],[{"header":{"parameterUnit":"m.s-1","parameterCategory":2,"la1":30.2992,"la2":30.254,"lo1":-89.0895,"lo2":-89.0443,"dy":0.0025,"dx":0.0025,"nx":19,"ny":19,"refTime":"2026-03-12T03:00:00:Z","depth":"4","parameterNumber":2,"parameterNumberName":"U-component_of_CURRENTS"},"data":[0,0,0,0.093,0.0932,0.1027,0.1028,0.1103,0.1104,0,0,0,0,0,0,0,0,0,0,0,0.09,0.0901,0.093,0.0933,0.1027,0.1028,0.1103,0.1104,0,0,0,0,0,0,0,0,0,0,0,0.09,0.0901,0.0902,0.0933,0.1027,0.1028,0.1103,0.1043,0,0,0,0,0,0,0,0,0,0,0.0957,0.0937,0.0901,0.0902,0.0934,0.1027,0.1028,0.1041,0.1047,0.1047,0,0.1067,0,0.1085,0.1108,0.1108,0,0,0,0.0934,0.0932,0.0955,0.0902,0.0934,0.1027,0.0985,0.1045,0.1051,0.1055,0.1068,0.1072,0.1086,0.1108,0.1108,0.118,0.1181,0,0,0.0929,0.0919,0.0951,0.096,0.0966,0.0982,0.0988,0.1049,0.1059,0.1069,0.1074,0.1088,0.1109,0.1109,0.118,0.118,0,0,0,0.0913,0.0915,0.0938,0.0956,0.0976,0.0985,0.0992,0.1057,0.1064,0.1075,0.1089,0.1109,0.111,0.118,0.118,0.1207,0,0,0,0.091,0.0906,0.0935,0.093,0.0976,0.1025,0.0998,0.106,0.1068,0.1088,0.1109,0.111,0.1179,0.118,0.1205,0.1208,0,0,0,0.0895,0.0904,0.0917,0.093,0.097,0.1024,0.1036,0.1062,0.1076,0.1108,0.111,0.1179,0.118,0.1204,0.1206,0.1265,0,0,0,0.0878,0.0894,0.0917,0.0942,0.0969,0.1021,0.1036,0.1083,0.1112,0.1109,0.1179,0.118,0.1203,0.1205,0.1263,0.1108,0,0,0,0.0882,0.0894,0.0908,0.0931,0.0973,0.1008,0.1062,0.1108,0.1124,0.1155,0.1157,0.1206,0.1206,0.1264,0.1158,0,0,0,0,0.0899,0.0911,0.0928,0.0963,0.1004,0.1055,0.1102,0.1129,0.1182,0.1145,0.1215,0.1215,0.1251,0.1155,0.1184,0.1184,0.1184,0.1184,0.1184,0.0881,0.0909,0.0937,0.0981,0.1021,0.1094,0.1139,0.1185,0.1197,0.123,0.1244,0.1314,0.1212,0.1257,0.1257,0.1257,0.1257,0.1257,0.1257,0.0877,0.0887,0.0942,0.098,0.1042,0.1096,0.1181,0.1214,0.1294,0.1277,0.1312,0.1197,0.126,0.126,0.1259,0.1259,0.1259,0.1258,0.1258,0.0846,0.0856,0.0896,0.0958,0.1028,0.1107,0.1184,0.1258,0.1316,0.1354,0.1286,0.1345,0.1336,0.1392,0.1393,0.1393,0.1393,0.1393,0.1394,0.0791,0.0832,0.0863,0.0936,0.0981,0.1066,0.12,0.1259,0.1343,0.1299,0.1378,0.136,0.1355,0.1345,0.1398,0.1397,0.1397,0.1396,0.1396,0.074,0.0769,0.0805,0.0848,0.0945,0.0997,0.114,0.1227,0.1291,0.1296,0.1279,0.1283,0.1266,0.1264,0.1249,0.1276,0.1274,0.1272,0,0.0698,0.0716,0.076,0.0805,0.0859,0.0954,0.1002,0.1096,0.118,0.1134,0.1296,0.1273,0.1275,0.1251,0.1247,0.1227,0,0,0,0.0665,0.0687,0.07,0.0759,0.0812,0.0897,0.1011,0.1015,0.1151,0.1175,0.1228,0.124,0.1338,0.1411,0.1395,0.139,0.1372,0,0]},{"header":{"parameterUnit":"m.s-1","parameterCategory":2,"la1":30.2992,"la2":30.254,"lo1":-89.0895,"lo2":-89.0443,"dy":0.0025,"dx":0.0025,"nx":19,"ny":19,"refTime":"2026-03-12T03:00:00:Z","depth":"4","parameterNumber":3,"parameterNumberName":"V-component_of_CURRENTS"},"data":[0,0,0,-0.0073,-0.0073,-0.0093,-0.0093,-0.014,-0.014,0,0,0,0,0,0,0,0,0,0,0,-0.0067,-0.0067,-0.0073,-0.0073,-0.0093,-0.0093,-0.014,-0.014,0,0,0,0,0,0,0,0,0,0,0,-0.0067,-0.0067,-0.0067,-0.0073,-0.0093,-0.0093,-0.014,-0.0121,0,0,0,0,0,0,0,0,0,0,-0.01,-0.0087,-0.0067,-0.0067,-0.0073,-0.0092,-0.0093,-0.012,-0.0122,-0.0136,0,-0.0136,0,-0.0138,-0.0144,-0.0144,0,0,0,-0.0078,-0.0085,-0.0091,-0.0067,-0.0073,-0.0092,-0.0085,-0.0121,-0.0123,-0.0139,-0.0136,-0.0138,-0.0138,-0.0144,-0.0144,-0.0156,-0.0156,0,0,-0.0077,-0.0072,-0.0089,-0.0093,-0.0075,-0.0085,-0.0086,-0.0122,-0.0124,-0.0137,-0.0139,-0.0139,-0.0144,-0.0145,-0.0157,-0.0156,0,0,0,-0.0071,-0.0071,-0.0076,-0.0091,-0.0092,-0.0085,-0.0086,-0.0122,-0.0124,-0.014,-0.014,-0.0145,-0.0145,-0.0157,-0.0156,-0.0109,0,0,0,-0.007,-0.0067,-0.0075,-0.0072,-0.0091,-0.0104,-0.0085,-0.0121,-0.0125,-0.0139,-0.0145,-0.0146,-0.0157,-0.0157,-0.0111,-0.008,0,0,0,-0.0067,-0.0066,-0.0068,-0.0072,-0.0078,-0.0103,-0.0107,-0.0122,-0.0125,-0.0144,-0.0146,-0.0157,-0.0157,-0.0113,-0.0083,-0.0059,0,0,0,-0.0062,-0.0053,-0.0067,-0.0056,-0.0078,-0.0073,-0.0106,-0.011,-0.0121,-0.0145,-0.0157,-0.0156,-0.0113,-0.0085,-0.0061,-0.0037,0,0,0,-0.0046,-0.0051,-0.0043,-0.0056,-0.004,-0.0071,-0.0059,-0.0091,-0.0119,-0.0148,-0.0149,-0.0111,-0.0083,-0.006,-0.0006,0,0,0,0,-0.0034,-0.0028,-0.0026,-0.002,-0.0026,-0.0027,-0.0058,-0.0073,-0.0095,-0.0123,-0.0113,-0.0097,-0.0084,-0.0076,-0.0154,-0.0154,-0.0154,-0.0154,-0.0154,-0.001,-0.0007,0.0012,0.0015,0.0017,0.0001,-0.0004,-0.0031,-0.0066,-0.0067,-0.0061,-0.0012,-0.0002,-0.007,-0.0069,-0.0069,-0.0069,-0.0069,-0.0069,0.0022,0.0034,0.0044,0.0063,0.0062,0.0067,0.0045,0.0024,0.0016,-0.002,-0.001,-0.0029,-0.0064,-0.0065,-0.0066,-0.0066,-0.0067,-0.0067,-0.0067,0.0035,0.0043,0.0059,0.0092,0.0116,0.011,0.014,0.011,0.0068,0.0079,0.0078,0.0023,0.0021,0.0081,0.0081,0.0081,0.0082,0.0082,0.0082,0.0039,0.0057,0.0087,0.0123,0.0151,0.0185,0.0198,0.0199,0.016,0.0145,0.0096,0.0039,0.0034,0.003,0.0086,0.0085,0.0085,0.0084,0.0084,0.0049,0.0059,0.0106,0.0139,0.0213,0.0246,0.0267,0.0273,0.0278,0.0254,0.0172,0.0167,0.0153,0.0146,0.0145,0.0237,0.0238,0.0238,0,0.0052,0.0061,0.0125,0.0184,0.0254,0.0283,0.033,0.0332,0.0276,0.0269,0.0248,0.0155,0.015,0.0132,0.0126,0.0125,0,0,0,0.0059,0.0079,0.0123,0.0186,0.027,0.0317,0.0344,0.0344,0.0286,0.03,0.0252,0.0248,0.0164,0.0097,0.0063,0.0058,0.0049,0,0]}]]